Regional Weather Roundup
Issued by NWS State College, PA

Home | Current Version | Previous Version | Text Only | Print | Product List | Glossary On
Versions: 1 2 3 4 5 6 7 8 9 10 11 12 13 14 15 16 17 18 19 20 21 22 23 24 25 26 27 28 29 30 31 32 33 34 35 36 37 38 39 40 41 42 43 44 45 46 47 48 49 50
000
ASUS41 KCTP 281903
RWRCTP

REGIONAL WEATHER ROUNDUP
NATIONAL WEATHER SERVICE STATE COLLEGE PA
300 PM EDT SAT MAY 28 2016

Note: "fair" indicates few or no clouds below 12,000 feet with no
significant weather and/or obstructions to visibility.

* = STATION THAT DOES NOT REPORT PRECIPITATION /E.G. RAIN...SNOW...ETC/
    THUNDER OR FOG.

PAZ002>004-007>009-013>016-020>023-029>032-282000-
WESTERN PENNSYLVANIA

CITY           SKY/WX    TMP DP  RH WIND       PRES   REMARKS
ERIE           PTSUNNY   85  65  51 N9        30.07F
MEADVILLE      MOSUNNY   84  63  49 VRB6      30.10F
FRANKLIN*      MOSUNNY   84  63  48 S8        30.14F
NEW CASTLE     FAIR      88  66  48 SW9       30.10F
BEAVER COUNTY  PTSUNNY   81  64  57 S7        30.12F
BUTLER*        MOSUNNY   88  66  48 S5        30.14F
PITTSBURGH INT MOSUNNY   87  63  44 S8        30.11F
PITTSBURGH     MOSUNNY   86  64  47 MISG      30.11F
INDIANA*       MOSUNNY   88  66  48 VRB6G14   30.16F
LATROBE        MOSUNNY   86  66  51 SW8       30.13F
WASHINGTON CO* MOSUNNY   84  66  54 SW7       30.13F
$$

PAZ004>006-010>012-017>019-024>028-033>037-041-042-045-046-049>053-282000-
CENTRAL PENNSYLVANIA

CITY           SKY/WX    TMP DP  RH WIND       PRES   REMARKS
BRADFORD       NOT AVBL
DUBOIS         CLOUDY    84  64  50 SW9       30.14F
CLEARFIELD     CLOUDY    85  64  49 E7        30.14F
JOHNSTOWN      TSTM      72  61  68 CALM      30.19F
ALTOONA        PTSUNNY   84  62  47 S7        30.15F
STATE COLLEGE  NOT AVBL
WILLIAMSPORT   CLOUDY    91  63  39 VRB7      30.07F
SELINSGROVE    MOSUNNY   92  65  40 VRB6      30.09F
FT INDIANTOWN  MOSUNNY   89  68  50 S8        30.11F
CAPITAL CITY   SUNNY     90  66  45 S8        30.10F
HARRISBURG     MOSUNNY   90  67  46 W5        30.09F
YORK           SUNNY     86  69  56 S6        30.12F
$$

PAZ038>040-043-044-047-048-054-055-060>062-067>071-282000-
EASTERN PENNSYLVANIA

CITY           SKY/WX    TMP DP  RH WIND       PRES   REMARKS
SCRANTON       CLOUDY    90  66  45 N14       30.10F
MOUNT POCONO   RAIN      73  65  75 E8        30.17S
ALLENTOWN      MOSUNNY   89  67  47 S14       30.09F
QUAKERTOWN*    PTCLDY    88  68  51 SW9       30.13R
READING        PTSUNNY   90  67  46 S8G18     30.10S
LANCASTER      MOSUNNY   86  69  56 S12       30.11F
COATESVILLE    CLEAR     86  66  51 VRB5G13   30.16S
POTTSTOWN      MOSUNNY   87  68  52 S10       30.13S
BLUE BELL      SUNNY     88  68  51 SW10G17   30.11S
DOYLESTOWN     SUNNY     87  64  46 SW12      30.11F
WILLOW GROVE   NOT AVBL
NORTH PHILA    SUNNY     90  68  48 SW15      30.12F
PHILADELPHIA   MOSUNNY   90  65  43 SW15      30.12F
$$




USA.gov is the U.S. government's official web portal to all federal, state and local government web resources and services.